STAR ONE D1 (41904 NORAD) Tracking and Keplerian Element Data

This shows tracking and keplerian element data for the satellite.

Feedback or suggestion? Click here.




ElementValue
Catalog41904
NameSTAR ONE D1
Epoch Orbit1334
Epoch Day222.80138032
Epoch Year2020
RAAN55.6967
Inclination0.0028
Eccentricity0.0002669
Argument of Perigee79.5216
Mean Anonmoly28.009
Mean Motion1.00273346
Decay Rate-2.13E-06
L11 41904U 16082B 20222.80138032 -.00000213 00000-0 00000-0 0 9995
L22 41904 0.0028 55.6967 0002669 79.5216 28.0090 1.00273346 13347

Live tracking and technical data element details for STAR ONE D1 (NORAD 41904). STAR ONE D1 can be tracked NOW for your location showing map with azimuth and elevation plus other details from your city location.

Track the satellite on the map from your city or location and see movement details for azimuth, elevation, latitude, longitude, range, height, and movement on the map or in text.







IsCatalogInMostPopularTable: catalog: 41904, numindb: 447
Update: records affected: 1



GetName: 41904 STAR ONE D1

Hit Count: updated at: Mon, 10 Aug 2020 22:36:59 GMT